Regional Weather Roundup
Issued by NWS

Home | Current Version | Previous Version | Text Only | Print | Product List | Glossary On
Versions: 1 2 3 4 5 6 7 8 9 10 11 12 13 14 15 16 17 18 19 20 21 22 23 24 25 26 27 28 29 30 31 32 33 34 35 36 37 38 39 40 41 42 43 44 45 46 47 48 49 50
000
ASUS43 KDMX 020207
RWRIA

WEATHER ROUNDUP FOR IOWA
NATIONAL WEATHER SERVICE DES MOINES IA
900 PM CDT SAT AUG 01 2015

NOTE: "FAIR" INDICATES FEW OR NO CLOUDS BELOW 12,000 FEET WITH NO
SIGNIFICANT WEATHER AND/OR OBSTRUCTIONS TO VISIBILITY.

* - THESE STATIONS ARE NOT NWS STATIONS...THUS NOT UNDER NWS
QUALITY CONTROL.  THEY ALSO DO NOT REPORT WEATHER SUCH
AS PRECIPITATION OR FOG.

IAZ001>003-012>014-020>022-031>034-043>046-020300-
   NORTHWEST IOWA

CITY           SKY/WX    TMP DP  RH WIND       PRES   REMARKS
CARROLL *      CLEAR     73  72  94 S6        29.90S
CHEROKEE *     CLEAR     72  69  91 S8        29.88S
DENISON *      CLEAR     73  70  88 S6        29.89R
LE MARS *      CLEAR     73  70  88 S7        29.88S
ORANGE CITY *  CLEAR     72  68  88 S7        29.88S
SHELDON *      CLEAR     73  68  83 S9G15     29.86R
SIOUX CITY     CLEAR     74  66  76 S3        29.88S
SPENCER        CLEAR     74  66  76 S9        29.87S
STORM LAKE *   CLEAR     72  70  94 S8        29.90S
$$

IAZ055>058-069>071-079>083-090>094-020300-
   SOUTHWEST IOWA

CITY           SKY/WX    TMP DP  RH WIND       PRES   REMARKS
ATLANTIC *     CLEAR     73  72  94 CALM      29.91F
AUDUBON *      CLEAR     73  70  88 S3        29.93S
CLARINDA *     CLEAR     77  75  94 CALM      29.93F
COUNCIL BLFS * CLEAR     75  72  88 S8        29.91S
CRESTON *      CLEAR     79  73  83 S5        29.94F HX  82
HARLAN  *      CLEAR     72  72 100 CALM      29.94S
LAMONI         MOCLDY    78  68  71 S14       29.94R HX  80
RED OAK *      CLEAR     77  73  88 CALM      29.91S
SHENANDOAH *   CLEAR     79  73  83 E5        29.91F HX  82
$$

IAZ047>049-059>061-072>074-084-020300-
   CENTRAL IOWA

CITY           SKY/WX    TMP DP  RH WIND       PRES   REMARKS
AMES           CLEAR     73  71  93 SE3       29.89S
ANKENY *       CLEAR     81  72  74 S6        29.89S HX  84
CHARITON *     CLEAR     79  73  83 CALM      29.92S HX  82
DES MOINES     PTCLDY    80  72  76 S7        29.89F HX  84
GRINNELL*      CLEAR     77  70  78 CALM      29.92S
KNOXVILLE *    CLEAR     79  72  78 CALM      29.90S HX  82
MARSHALLTOWN   CLEAR     76  71  85 S7        29.89F
PELLA *        CLEAR     77  74  91 S5        29.91F
PERRY *          N/A     77  73  88 SW7       29.90S
$$

IAZ004>006-015-016-023>025-035-036-020300-
   NORTH CENTRAL IOWA

CITY           SKY/WX    TMP DP  RH WIND       PRES   REMARKS
ALGONA *       CLEAR     73  68  83 S8        29.86F
CLARION *      CLEAR     73  70  88 S9        29.87F
ESTHERVILLE    CLEAR     72  65  78 S7        29.86S
FORT DODGE *   CLEAR     75  66  73 S7        29.89S
MASON CITY     CLEAR     72  68  87 S7        29.88F
FOREST CITY *    N/A     70  68  94 S6        29.86S
IOWA FALLS *     N/A     75  70  83 S6        29.91S
$$

IAZ007>011-017>019-026>030-037>042-050>054-066-020300-
   NORTHEAST IOWA

CITY           SKY/WX    TMP DP  RH WIND       PRES   REMARKS
CEDAR RAPIDS   PTCLDY    74  72  93 SE5       29.90F
CHARLES CITY * CLEAR     73  73 100 SW7       29.89S
CLINTON *      MOCLDY    72  68  88 SW7       29.93F
DECORAH *      CLEAR     75  70  83 S5        29.87S
DUBUQUE        CLEAR     73  69  87 SW5       29.91S
MONTICELLO *   CLEAR     75  72  88 S6        29.90S
OELWEIN *      CLEAR     73  72  94 S7        29.90S
WATERLOO       CLEAR     75  70  84 S6        29.88S
$$

IAZ064-065-067-068-078-020300-
   EAST CENTRAL IOWA

CITY           SKY/WX    TMP DP  RH WIND       PRES   REMARKS
DAVENPORT      MOCLDY    75  68  78 SW6       29.92F
IOWA CITY      PTCLDY    77  72  84 S5        29.92S
MT. PLEASANT * PTCLDY    76  70  81 SE3       29.93S
MUSCATINE *    CLEAR     77  72  83 S3        29.91F
QUAD CITIES    MOCLDY    77  68  73 S3        29.91S
$$

IAZ062-063-075>077-085>089-095>099-020300-
   SOUTHEAST IOWA

CITY           SKY/WX    TMP DP  RH WIND       PRES   REMARKS
BURLINGTON     PTCLDY    77  74  90 S5        29.92F
FAIRFIELD *    CLEAR     79  72  78 S3        29.92S HX  82
FORT MADISON * CLEAR     77  72  83 S6        29.94F
KEOKUK *       CLEAR     79  73  83 S3        29.92F HX  82
OSKALOOSA *      N/A     73  71  93 CALM      29.92S
CENTERVILLE *    N/A     75  72  88 S8        29.95S
OTTUMWA        PTCLDY    75  72  90 S5        29.90F
WASHINGTON *   CLEAR     75  72  88 S3        29.93S
$$

ABBREVIATIONS USED IN REMARKS
   TC - TEMPERATURES IN CELSIUS
  WCI - WIND CHILL INDEX
   HX - HEAT INDEX
  VSB - VISIBILITY
$$




USA.gov is the U.S. government's official web portal to all federal, state and local government web resources and services.